Flag for Australia Weather past 2 weeks in Adelaide, South Australia, Australia

Now
55 °F

Broken clouds.


Feels Like: 54 °F
Forecast: 42 / 63 °F
Wind: 6 mph from West

Location: Adelaide Airport

Current Time: Sep 18, 2014 at 12:08:26 PM

Latest Report: Sep 18, 2014 at 11:30 AM


Visibility: N/A

Pressure: 30.30 "Hg

Humidity: 63%

Dew point: 43 °F

Location of AdelaideLocation

Historic Weather in Adelaide — Graph

°F

Adelaide temperature yesterday

Maximum temperature yesterday: 61 °F (at 12:00 PM)
Minimum temperature yesterday: 45 °F (at 11:30 PM)
Average temperature yesterday: 55 °F

Past Weeks' High & Low Weather Summary

 TemperatureHumidityPressure
High79 °F (Sep 14, 2:30 PM)100% (Sep 5, 3:00 AM)30.36 "Hg (Sep 5, 3:00 AM)
Low39 °F (Sep 5, 6:30 AM)19% (Sep 7, 3:00 PM)29.53 "Hg (Sep 8, 5:00 PM)
Average57 °F65%30.08 "Hg
* Reported Sep 3 10:30 AM — Sep 18 10:30 AM, Adelaide, Weather by CustomWeather, © 2014

Note: Actual official high and low records may vary slightly from our data, if they occured in-between our weather recording intervals... More about our weather records

Advertising

Adelaide weather history for previous 24 hours

 ConditionsComfort  
Time TempWeatherWind HumidityBarometerVisibility
10:30 AM
Sep 18
55 °FBroken clouds.9 mph67%30.30 "HgN/A
10:00 AM54 °FPartly sunny.8 mph63%30.30 "HgN/A
9:30 AM54 °FScattered showers. Broken clouds.5 mph63%30.33 "HgN/A
8:30 AM54 °FBroken clouds.5 mph58%30.33 "HgN/A
8:00 AM50 °FPartly sunny.No wind71%30.30 "HgN/A
7:30 AM48 °FPartly sunny.No wind82%30.30 "HgN/A
7:00 AM46 °FPartly sunny.No wind82%30.30 "HgN/A
6:30 AM45 °FPartly sunny.3 mph81%30.27 "HgN/A
6:00 AM45 °FSunny.3 mph81%30.27 "Hg10 mi
5:30 AM45 °FClear.1 mph81%30.27 "Hg10 mi
5:00 AM43 °FClear.No wind87%30.24 "Hg10 mi
4:30 AM43 °FPassing clouds.2 mph81%30.27 "HgN/A
4:00 AM43 °FClear.6 mph81%30.24 "Hg10 mi
3:30 AM43 °FClear.6 mph76%30.24 "Hg10 mi
3:00 AM41 °FClear.6 mph87%30.27 "Hg10 mi
2:30 AM43 °FClear.8 mph81%30.27 "Hg10 mi
2:00 AM41 °FClear.5 mph87%30.27 "Hg10 mi
1:30 AM43 °FClear.5 mph81%30.27 "Hg10 mi
1:00 AM43 °FClear.3 mph76%30.27 "Hg10 mi
12:30 AM41 °FClear.5 mph81%30.27 "Hg10 mi
12:00 AM45 °FClear.1 mph76%30.27 "Hg10 mi
11:30 PM
Sep 17
45 °FClear.3 mph76%30.27 "Hg10 mi
11:00 PM46 °FClear.2 mph71%30.27 "Hg10 mi
10:30 PM46 °FClear.5 mph71%30.27 "Hg10 mi
10:00 PM48 °FClear.3 mph66%30.27 "Hg10 mi
9:30 PM48 °FClear.6 mph62%30.27 "Hg10 mi
9:00 PM50 °FClear.7 mph58%30.27 "Hg10 mi
8:30 PM50 °FClear.8 mph58%30.24 "Hg10 mi
8:00 PM52 °FClear.9 mph58%30.24 "Hg10 mi
7:30 PM52 °FClear.9 mph58%30.24 "Hg10 mi
7:00 PM54 °FClear.10 mph51%30.21 "Hg10 mi
6:30 PM55 °FClear.9 mph55%30.21 "Hg10 mi
6:00 PM55 °FClear.10 mph51%30.21 "Hg10 mi
5:30 PM57 °FPassing clouds.14 mph51%30.21 "HgN/A
5:00 PM57 °FPassing clouds.13 mph55%30.18 "HgN/A
4:30 PM59 °FPassing clouds.15 mph45%30.18 "HgN/A
4:00 PM59 °FPassing clouds.16 mph51%30.18 "HgN/A
3:30 PM61 °FPassing clouds.18 mph48%30.18 "HgN/A
3:00 PM61 °FPassing clouds.14 mph45%30.18 "HgN/A
2:30 PM61 °FPassing clouds.16 mph42%30.18 "HgN/A
2:00 PM59 °FPassing clouds.17 mph51%30.18 "HgN/A
1:30 PM61 °FPassing clouds.17 mph52%30.18 "HgN/A
1:00 PM59 °FPassing clouds.17 mph59%30.18 "HgN/A
12:30 PM59 °FPassing clouds.16 mph63%30.18 "HgN/A
12:00 PM61 °FPassing clouds.16 mph59%30.18 "HgN/A
Weather by CustomWeather, © 2014

See weather overviewHow to use our weather pages